Flag for Germany Weather past 2 weeks in Wolfsburg, Lower Saxony, Germany

Now
57 °F

Passing clouds.


Feels Like: 55 °F
Forecast: 54 / 64 °F
Wind: 9 mph from Southwest

Location: Celle Airport

Current Time: Jul 29, 2015 at 5:15:20 AM

Latest Report: Jul 29, 2015 at 4:20 AM


Visibility: N/A

Pressure: 29.68 "Hg

Humidity: 67%

Dew point: 46 °F

Location of WolfsburgLocation

Historic Weather in Wolfsburg — Graph

°F

Wolfsburg temperature yesterday

Maximum temperature yesterday: 66 °F (at 4:20 PM)
Minimum temperature yesterday: 57 °F (at 7:20 PM)
Average temperature yesterday: 61 °F

Past Weeks' High & Low Weather Summary

 TemperatureHumidityPressure
High90 °F (Jul 17, 3:20 PM)100% (Jul 14, 3:20 AM)30.12 "Hg (Jul 14, 3:20 AM)
Low52 °F (Jul 24, 4:20 AM)29% (Jul 17, 5:20 PM)29.47 "Hg (Jul 25, 1:20 PM)
Average65 °F74%29.86 "Hg
* Reported Jul 14 3:20 AM — Jul 29 3:20 AM, Wolfsburg, Weather by CustomWeather, © 2015

Note: Actual official high and low records may vary slightly from our data, if they occured in-between our weather recording intervals... More about our weather records

Advertising

Wolfsburg weather history for previous 24 hours

 ConditionsComfort  
Time TempWeatherWind HumidityBarometerVisibility
3:20 AM
Wed, Jul 29
59 °FPassing clouds.13 mph63%29.68 "HgN/A
2:20 AM59 °FPassing clouds.13 mph68%29.68 "HgN/A
1:20 AM57 °FPartly cloudy.6 mph72%29.68 "HgN/A
12:20 AM57 °FPassing clouds.9 mph72%29.68 "HgN/A
11:20 PM
Tue, Jul 28
57 °FPassing clouds.8 mph72%29.68 "HgN/A
10:20 PM57 °FPassing clouds.10 mph77%29.68 "HgN/A
9:20 PM59 °FScattered clouds.10 mph77%29.68 "HgN/A
8:20 PM59 °FBroken clouds.6 mph82%29.68 "HgN/A
7:20 PM57 °FBroken clouds.12 mph88%29.68 "HgN/A
6:20 PM59 °FSprinkles. Broken clouds.13 mph82%29.65 "HgN/A
5:20 PM61 °FScattered showers. Partly sunny.10 mph77%29.65 "HgN/A
5:03 PM64 °FSprinkles. Broken clouds.20 mph60%29.65 "Hg5 mi
4:20 PM66 °FScattered showers. Partly sunny.21 mph56%29.62 "HgN/A
3:20 PM63 °FPartly sunny.20 mph73%29.65 "HgN/A
2:20 PM61 °FSprinkles. Broken clouds.18 mph83%29.65 "Hg4 mi
1:20 PM64 °FPartly sunny.24 mph64%29.62 "HgN/A
12:20 PM64 °FPartly sunny.23 mph60%29.62 "HgN/A
11:20 AM63 °FBroken clouds.21 mph68%29.62 "HgN/A
10:20 AM61 °FBroken clouds.18 mph72%29.59 "HgN/A
9:20 AM59 °FPartly sunny.17 mph77%29.59 "HgN/A
8:20 AM59 °FPartly sunny.20 mph72%29.59 "HgN/A
7:20 AM59 °FBroken clouds.18 mph72%29.56 "HgN/A
6:20 AM59 °FPassing clouds.15 mph72%29.56 "HgN/A
5:20 AM59 °FPartly cloudy.17 mph72%29.56 "HgN/A
Weather by CustomWeather, © 2015

See weather overviewHow to use our weather pages